TimeCST,TemperatureF,Dew PointF,Humidity,Sea Level PressureIn,VisibilityMPH,Wind Direction,Wind SpeedMPH,Gust SpeedMPH,PrecipitationIn,Events,Conditions,WindDirDegrees,DateUTC
12:15 AM,27.9,22.1,79,30.28,10.0,SE,11.5,-,N/A,,Clear,140,2013-03-09 06:15:00
12:35 AM,29.1,22.8,77,30.26,10.0,ESE,12.7,-,N/A,,Clear,120,2013-03-09 06:35:00
12:55 AM,29.1,23.0,78,30.25,10.0,ESE,12.7,-,N/A,,Clear,120,2013-03-09 06:55:00
1:15 AM,29.1,23.0,78,30.25,10.0,SE,9.2,-,N/A,,Clear,130,2013-03-09 07:15:00
1:35 AM,29.5,23.4,78,30.25,10.0,SE,10.4,-,N/A,,Clear,140,2013-03-09 07:35:00
1:55 AM,29.1,23.0,78,30.23,10.0,ESE,12.7,-,N/A,,Clear,120,2013-03-09 07:55:00
2:15 AM,29.1,23.0,78,30.22,10.0,SE,13.8,-,N/A,,Clear,130,2013-03-09 08:15:00
2:35 AM,29.1,23.4,79,30.22,10.0,ESE,10.4,-,N/A,,Clear,120,2013-03-09 08:35:00
2:55 AM,29.1,23.5,80,30.21,10.0,SE,9.2,-,N/A,,Scattered Clouds,130,2013-03-09 08:55:00
3:15 AM,29.5,23.9,80,30.20,10.0,SE,11.5,-,N/A,,Mostly Cloudy,140,2013-03-09 09:15:00
3:35 AM,30.0,24.3,79,30.20,10.0,SE,13.8,-,N/A,,Mostly Cloudy,140,2013-03-09 09:35:00
3:55 AM,30.2,24.8,80,30.20,10.0,SE,13.8,-,N/A,,Overcast,140,2013-03-09 09:55:00
4:15 AM,29.8,24.6,81,30.20,10.0,SE,11.5,-,N/A,,Overcast,140,2013-03-09 10:15:00
4:35 AM,30.0,24.6,80,30.20,10.0,SE,9.2,-,N/A,,Overcast,130,2013-03-09 10:35:00
4:55 AM,30.2,25.2,82,30.21,10.0,SE,9.2,-,N/A,,Overcast,140,2013-03-09 10:55:00
5:15 AM,30.2,25.5,83,30.21,7.0,SSE,10.4,-,N/A,,Overcast,150,2013-03-09 11:15:00
5:35 AM,30.2,26.1,85,30.20,7.0,SE,11.5,-,N/A,,Overcast,140,2013-03-09 11:35:00
5:55 AM,30.6,26.1,83,30.19,7.0,SE,12.7,-,N/A,,Overcast,140,2013-03-09 11:55:00
6:15 AM,31.1,26.6,83,30.19,5.0,SE,12.7,-,N/A,,Overcast,140,2013-03-09 12:15:00
6:35 AM,31.6,27.9,86,30.19,4.0,SE,15.0,19.6,0.01,,Overcast,140,2013-03-09 12:35:00
6:55 AM,31.6,28.2,87,30.19,2.5,SE,13.8,-,0.03,Snow,Light Snow,140,2013-03-09 12:55:00
7:15 AM,32.0,28.8,88,30.17,4.0,SE,15.0,19.6,0.01,,Overcast,140,2013-03-09 13:15:00
7:35 AM,31.8,28.4,87,30.16,3.0,ESE,13.8,-,0.02,,Overcast,120,2013-03-09 13:35:00
7:55 AM,32.0,28.4,87,30.15,5.0,ESE,13.8,-,N/A,,Mostly Cloudy,120,2013-03-09 13:55:00
8:15 AM,32.0,28.9,88,30.17,5.0,SE,12.7,-,N/A,,Overcast,140,2013-03-09 14:15:00
8:35 AM,32.0,29.1,89,30.16,7.0,SE,12.7,-,N/A,,Overcast,140,2013-03-09 14:35:00
8:55 AM,32.5,29.3,88,30.15,7.0,SE,13.8,-,N/A,,Overcast,140,2013-03-09 14:55:00
9:15 AM,32.5,29.3,88,30.13,7.0,SE,16.1,-,N/A,,Scattered Clouds,140,2013-03-09 15:15:00
9:35 AM,32.9,29.3,87,30.12,7.0,SE,15.0,-,N/A,Rain,Light Rain,140,2013-03-09 15:35:00
9:55 AM,33.3,29.3,85,30.11,10.0,SSE,17.3,-,N/A,Rain,Light Rain,150,2013-03-09 15:55:00
10:15 AM,33.8,29.7,85,30.09,10.0,SSE,15.0,-,N/A,,Clear,150,2013-03-09 16:15:00
10:35 AM,33.8,29.3,84,30.08,10.0,SE,17.3,21.9,N/A,,Scattered Clouds,140,2013-03-09 16:35:00
10:55 AM,34.0,29.1,82,30.07,10.0,SSE,19.6,-,N/A,,Overcast,150,2013-03-09 16:55:00
11:15 AM,34.9,29.7,81,30.07,10.0,SSE,17.3,-,N/A,,Overcast,150,2013-03-09 17:15:00
11:35 AM,35.1,29.3,80,30.05,10.0,SSE,18.4,-,N/A,,Scattered Clouds,150,2013-03-09 17:35:00
11:55 AM,35.1,29.3,80,30.04,10.0,SE,19.6,25.3,N/A,,Light Drizzle,140,2013-03-09 17:55:00
12:15 PM,35.1,29.3,80,30.03,10.0,SSE,23.0,-,N/A,,Mostly Cloudy,160,2013-03-09 18:15:00
12:35 PM,35.1,29.3,80,30.02,10.0,SSE,24.2,27.6,N/A,,Mostly Cloudy,150,2013-03-09 18:35:00
12:55 PM,35.1,29.3,80,30.01,10.0,SSE,20.7,28.8,N/A,,Overcast,150,2013-03-09 18:55:00
1:15 PM,35.2,29.5,80,30.00,10.0,SSE,19.6,-,N/A,,Overcast,150,2013-03-09 19:15:00
1:35 PM,35.2,29.3,79,29.99,10.0,SSE,21.9,26.5,N/A,,Overcast,150,2013-03-09 19:35:00
1:55 PM,35.1,29.7,81,29.98,10.0,SSE,19.6,24.2,N/A,,Overcast,150,2013-03-09 19:55:00
2:15 PM,35.2,29.8,81,29.96,10.0,SE,19.6,-,N/A,,Overcast,140,2013-03-09 20:15:00
2:35 PM,35.2,30.2,82,29.95,10.0,SSE,19.6,-,N/A,,Overcast,150,2013-03-09 20:35:00
2:55 PM,35.6,30.2,81,29.95,10.0,SSE,17.3,-,N/A,,Overcast,150,2013-03-09 20:55:00
3:15 PM,35.6,30.2,81,29.95,10.0,SSE,18.4,-,N/A,,Overcast,150,2013-03-09 21:15:00
3:35 PM,35.2,30.6,83,29.94,7.0,SSE,15.0,-,N/A,Rain,Light Rain,160,2013-03-09 21:35:00
3:55 PM,35.6,30.9,83,29.93,10.0,SSE,15.0,-,N/A,Rain,Light Rain,150,2013-03-09 21:55:00
4:15 PM,35.8,31.1,83,29.91,5.0,SE,17.3,-,N/A,Rain,Light Rain,140,2013-03-09 22:15:00
4:35 PM,36.5,31.5,82,29.89,10.0,SE,16.1,-,N/A,,Overcast,130,2013-03-09 22:35:00
4:55 PM,36.5,31.3,81,29.89,10.0,SE,13.8,-,N/A,,Overcast,130,2013-03-09 22:55:00
5:15 PM,36.5,31.3,81,29.89,10.0,ESE,12.7,17.3,N/A,,Mostly Cloudy,120,2013-03-09 23:15:00
5:35 PM,36.5,31.3,81,29.88,10.0,SE,15.0,18.4,N/A,,Mostly Cloudy,130,2013-03-09 23:35:00
5:55 PM,36.9,31.5,81,29.88,10.0,SE,16.1,20.7,N/A,,Scattered Clouds,130,2013-03-09 23:55:00
6:15 PM,36.5,31.3,81,29.87,10.0,SE,16.1,-,N/A,,Clear,130,2013-03-10 00:15:00
6:35 PM,36.5,31.6,83,29.87,10.0,SE,15.0,21.9,N/A,,Clear,130,2013-03-10 00:35:00
6:55 PM,36.5,31.6,83,29.88,10.0,SSE,9.2,-,N/A,,Scattered Clouds,150,2013-03-10 00:55:00
7:15 PM,35.8,31.5,84,29.87,10.0,SE,15.0,-,N/A,,Scattered Clouds,140,2013-03-10 01:15:00
7:35 PM,37.0,31.8,81,29.86,10.0,SSE,13.8,-,N/A,,Mostly Cloudy,150,2013-03-10 01:35:00
7:55 PM,36.7,31.6,82,29.87,10.0,SE,12.7,-,N/A,,Overcast,140,2013-03-10 01:55:00
8:15 PM,36.9,31.8,82,29.86,10.0,SE,12.7,-,N/A,,Overcast,140,2013-03-10 02:15:00
8:35 PM,37.2,32.0,81,29.86,10.0,SSE,10.4,-,N/A,,Overcast,150,2013-03-10 02:35:00
8:55 PM,37.8,32.0,80,29.87,10.0,SSE,11.5,-,N/A,,Overcast,160,2013-03-10 02:55:00
9:15 PM,36.7,31.8,83,29.87,10.0,SSE,10.4,-,N/A,,Overcast,160,2013-03-10 03:15:00
9:35 PM,37.8,32.0,80,29.85,10.0,SE,16.1,-,N/A,,Overcast,140,2013-03-10 03:35:00
9:55 PM,38.1,32.0,79,29.85,10.0,SSE,13.8,-,N/A,,Overcast,150,2013-03-10 03:55:00
10:15 PM,38.5,32.2,78,29.85,10.0,SSE,15.0,-,N/A,,Overcast,150,2013-03-10 04:15:00
10:35 PM,38.5,32.0,78,29.84,10.0,SE,16.1,-,N/A,,Overcast,140,2013-03-10 04:35:00
10:55 PM,38.7,32.2,78,29.83,10.0,SSE,18.4,-,N/A,,Overcast,150,2013-03-10 04:55:00
11:15 PM,38.8,32.2,77,29.82,10.0,SSE,17.3,-,N/A,,Overcast,150,2013-03-10 05:15:00
11:35 PM,38.8,32.2,77,29.82,10.0,SSE,16.1,-,N/A,,Overcast,150,2013-03-10 05:35:00
11:55 PM,38.7,32.2,78,29.81,10.0,SE,15.0,-,N/A,,Overcast,140,2013-03-10 05:55:00